sat.trackr.live / text

‹ back to catalog

STARLINK-3119

NORAD 49145 · 2021-082R

PAYLOAD ACTIVE UNKNOWN

§ Identity

Operator
Country
US
Launch date
2021-09-14
Launch site
AFWTR
Launch vehicle
Mass (kg)
RCS (m²)

Purposes: comms

External: N2YO · Heavens-Above · Gunter

§ Orbital elements

Epoch: 2026-09-19T23:44:25.234080Z

Period
96.11 min
Inclination
69.9986°
Eccentricity
0.0002726
Mean motion
14.98330792 rev/d
Perigee alt
570.2 km
Apogee alt
573.9 km
Semi-major
6,950.2 km
B*
1.7976e-5
RAAN
124.5421°
Arg perigee
269.3676°
Mean anomaly
90.7171°
Rev number
27,606

§ Raw data

STARLINK-31191 49145U 21082R   26262.98918095  .00000122  00000+0  17976-4 0  99912 49145  69.9986 124.5421 0002726 269.3676  90.7171 14.98330792276069

JSON: /api/v1/satellites/49145 · /tle

For live sub-satellite position, see the globe view (requires WebGL).

§ Visibility from observer

Set your observer location to see the next 7 days of passes ≥ 10°. The values pass through the URL so the page stays shareable.

No JS? Fill the form by hand. The geolocation button needs JavaScript.